Total_Precipitation_Accumulation
0.17 0.46 0.88 1.36 2.40 2.61 1.78 1.06 0.83 0.73 0.69 0.63 0.57 0.60 0.82 1.24 1.80 2.66 2.39 1.79 1.69 1.85 2.13 2.43 2.56 2.34 2.19 2.06 2.18 2.20 2.12 2.09 2.07 2.02 1.90 1.85 1.71 1.44 1.23 1.14 1.14 1.18 1.14 1.00 1.03 1.07 1.01 1.12 1.30
0.38 0.70 1.03 1.69 2.48 1.97 1.40 0.95 0.79 0.61 0.53 0.56 0.66 0.75 0.77 0.94 0.94 1.30 1.84 1.85 1.43 1.49 1.88 1.91 2.18 2.11 1.99 1.93 2.02 1.98 1.95 1.89 1.93 1.84 1.72 1.68 1.65 1.39 1.13 1.06 1.08 1.07 1.03 1.01 1.06 1.08 1.09 1.10 1.19
0.59 0.81 1.22 1.90 1.76 1.12 0.87 0.67 0.57 0.57 0.54 0.64 0.75 0.81 0.87 1.03 0.96 1.33 1.67 1.48 1.30 1.38 1.66 1.93 2.04 1.87 1.79 1.71 1.77 1.75 1.72 1.75 1.84 1.73 1.63 1.55 1.45 1.28 1.09 1.00 1.03 1.01 1.00 0.98 1.02 1.13 1.18 1.13 1.16
0.69 0.97 1.17 1.43 1.15 0.58 0.37 0.38 0.40 0.60 0.75 0.90 0.94 1.00 1.03 1.00 0.99 1.28 1.46 1.22 1.17 1.15 1.26 1.61 1.78 1.66 1.65 1.56 1.51 1.61 1.64 1.70 1.75 1.68 1.54 1.57 1.50 1.39 1.17 1.01 1.00 1.02 1.05 1.07 1.09 1.21 1.24 1.12 1.12
0.70 1.09 1.44 1.15 0.71 0.43 0.29 0.28 0.43 0.65 0.82 0.90 1.00 1.23 1.54 1.38 1.07 1.21 1.23 1.12 1.06 1.07 1.13 1.35 1.64 1.54 1.50 1.45 1.41 1.50 1.58 1.59 1.58 1.59 1.42 1.46 1.48 1.38 1.17 1.05 1.01 0.95 1.01 1.11 1.14 1.19 1.20 1.15 1.20
0.88 1.22 1.23 0.88 0.51 0.32 0.31 0.32 0.43 0.59 0.78 0.94 1.25 1.51 1.88 1.81 1.51 1.37 1.21 1.29 1.21 1.04 1.07 1.30 1.59 1.55 1.48 1.45 1.47 1.56 1.62 1.49 1.44 1.45 1.33 1.33 1.38 1.34 1.25 1.14 1.09 0.99 1.02 1.14 1.17 1.16 1.12 1.15 1.28
1.01 1.02 0.80 0.60 0.47 0.34 0.32 0.33 0.41 0.59 0.80 1.08 1.38 1.61 1.82 1.97 1.80 1.57 1.42 1.50 1.62 1.37 1.34 1.38 1.42 1.46 1.50 1.66 1.75 1.81 1.73 1.48 1.40 1.40 1.31 1.22 1.21 1.22 1.16 1.19 1.16 1.12 1.12 1.19 1.26 1.23 1.21 1.26 1.36
0.60 0.69 0.54 0.40 0.45 0.41 0.29 0.29 0.42 0.64 0.86 1.10 1.33 1.53 1.88 1.77 1.68 1.76 2.01 2.22 2.32 2.15 1.98 1.74 1.59 1.67 1.56 1.63 1.86 1.97 1.68 1.44 1.39 1.44 1.39 1.32 1.37 1.41 1.44 1.37 1.32 1.38 1.46 1.50 1.55 1.48 1.42 1.49 1.56
0.39 0.60 0.47 0.30 0.33 0.36 0.27 0.29 0.39 0.46 0.69 0.98 1.18 1.29 1.35 1.42 1.69 2.05 2.50 2.68 2.59 2.63 2.43 2.14 1.93 1.75 1.79 1.77 1.82 2.12 1.90 1.64 1.72 1.94 1.93 2.02 2.42 2.23 2.25 1.78 1.71 1.85 2.03 2.11 2.13 2.08 1.94 1.85 1.78
0.37 0.50 0.29 0.16 0.14 0.18 0.20 0.28 0.36 0.53 1.01 1.60 1.58 1.27 1.14 1.42 1.80 2.10 2.49 2.86 2.53 2.66 2.39 2.26 2.20 1.88 1.83 1.94 2.34 2.81 2.42 2.24 2.35 2.64 2.57 2.89 2.94 2.77 2.09 2.06 2.32 2.51 2.84 2.98 2.99 2.99 2.63 2.26 2.09
0.26 0.27 0.16 0.07 0.06 0.07 0.11 0.20 0.29 0.59 1.13 1.83 2.01 1.58 1.46 1.62 2.01 2.08 2.40 2.77 2.68 2.54 2.45 2.21 2.47 2.21 2.26 2.59 2.68 2.85 2.90 2.78 2.77 2.86 2.83 3.09 2.78 2.44 2.34 2.72 3.08 3.33 3.47 3.61 3.62 3.50 2.95 2.89 3.10
0.18 0.14 0.08 0.06 0.05 0.06 0.15 0.25 0.36 0.51 1.01 1.32 1.32 1.23 1.39 1.67 2.01 2.22 2.40 2.85 2.74 2.47 2.44 2.48 2.62 2.69 2.88 2.89 2.78 2.64 2.43 2.43 2.58 2.74 2.69 2.84 2.95 2.95 2.93 3.17 3.34 3.58 3.92 4.29 4.16 4.14 3.80 3.72 3.46
0.12 0.13 0.12 0.11 0.08 0.10 0.16 0.22 0.35 0.55 0.74 0.83 0.80 0.99 1.42 1.74 2.20 2.59 3.03 3.36 3.25 3.05 2.94 3.03 3.25 3.22 3.16 3.16 2.90 2.46 2.29 2.16 2.19 2.33 2.43 2.36 2.71 3.03 3.06 2.97 3.09 3.02 3.24 3.66 4.25 4.15 4.30 4.19 3.74
0.09 0.10 0.12 0.15 0.11 0.15 0.17 0.20 0.40 0.68 0.71 0.76 0.92 1.18 1.57 2.02 2.45 2.79 3.60 4.07 4.15 4.00 3.83 3.70 3.85 3.46 3.24 3.17 2.92 2.68 2.34 2.33 2.20 2.14 2.06 2.22 2.49 2.83 2.81 2.80 3.07 3.09 3.00 3.15 3.64 3.79 4.20 4.15 3.74
0.13 0.17 0.19 0.19 0.13 0.14 0.19 0.42 0.60 0.72 0.90 0.95 1.13 1.34 1.66 2.24 2.74 3.30 3.90 4.68 4.98 5.12 4.73 4.18 3.96 3.67 3.47 3.33 2.98 2.65 2.45 2.26 2.37 2.35 2.15 2.17 2.29 2.54 2.54 2.67 2.73 2.77 2.64 2.75 2.98 3.18 3.44 3.38 3.23
0.21 0.35 0.46 0.26 0.16 0.15 0.25 0.72 0.84 0.69 1.03 1.39 1.33 1.59 1.98 2.51 2.99 3.73 4.48 5.30 5.78 5.92 5.36 4.66 3.93 4.02 3.96 3.74 3.13 2.69 2.48 2.40 2.36 2.25 2.05 1.91 2.03 2.03 2.17 2.24 2.23 2.27 2.12 2.26 2.64 2.70 2.93 3.09 3.11
0.25 0.37 0.43 0.34 0.20 0.19 0.29 0.73 0.90 0.70 0.93 1.26 1.48 1.71 2.14 2.53 2.85 3.49 4.15 4.97 5.56 6.05 5.89 5.30 5.16 4.97 4.34 3.66 3.08 2.69 2.48 2.42 2.20 2.11 2.04 1.92 1.81 1.89 2.06 2.21 2.26 1.94 1.95 2.07 1.92 2.39 2.65 2.84 2.87
0.28 0.25 0.32 0.39 0.27 0.27 0.37 0.60 0.86 0.89 1.13 1.46 1.59 1.70 1.97 2.18 2.50 2.96 3.46 3.94 4.54 5.02 4.95 4.91 5.07 4.67 4.08 3.46 3.02 2.78 2.52 2.26 2.07 2.00 2.05 2.02 1.93 1.98 2.31 2.12 2.01 1.82 2.14 2.40 2.45 2.78 2.72 2.58 2.60
0.18 0.19 0.28 0.33 0.28 0.35 0.49 0.64 0.84 1.01 1.30 1.57 1.57 1.52 1.59 1.86 2.15 2.39 2.73 3.11 3.34 3.51 3.62 3.95 4.18 3.94 3.49 3.12 2.66 2.51 2.45 2.22 2.01 1.92 1.78 1.95 1.93 2.16 2.49 2.26 2.54 2.20 2.21 2.39 2.42 2.65 2.58 2.28 2.21
0.13 0.15 0.27 0.35 0.29 0.34 0.49 0.81 0.97 1.04 1.10 1.24 1.37 1.29 1.39 1.69 1.77 1.88 2.02 2.33 2.48 2.72 3.02 3.37 3.61 3.43 2.90 2.70 2.52 2.43 2.37 2.19 2.18 2.10 2.11 1.90 1.91 2.13 2.18 2.52 2.33 2.35 2.45 2.49 2.60 2.73 2.69 2.38 2.29
0.12 0.14 0.19 0.28 0.33 0.43 0.55 1.16 1.24 1.05 0.95 0.88 1.07 1.13 1.13 1.32 1.50 1.58 1.61 1.71 2.02 2.59 2.81 2.71 2.93 3.10 2.82 2.70 2.62 2.55 2.52 2.32 2.41 2.39 2.29 1.92 1.79 1.81 1.99 2.16 2.18 2.40 2.21 2.54 2.78 2.72 2.83 2.79 2.55
0.12 0.11 0.12 0.16 0.26 0.56 0.66 1.26 1.33 1.11 1.09 0.89 0.87 0.93 0.88 0.86 1.08 1.26 1.28 1.37 1.59 1.90 2.17 2.51 2.83 2.93 2.82 2.65 2.43 2.30 2.13 2.08 2.12 2.15 2.16 2.03 1.90 1.77 1.86 2.00 2.28 2.45 2.18 2.70 2.33 2.47 2.72 2.86 2.64
0.06 0.06 0.09 0.15 0.26 0.49 0.62 1.02 1.26 1.09 1.26 0.99 0.69 0.59 0.55 0.52 0.65 0.86 0.99 1.12 1.20 1.34 1.72 2.27 2.73 2.99 2.86 2.51 2.32 2.38 2.21 2.17 2.15 2.07 2.27 2.13 1.98 1.82 1.74 2.00 2.26 2.37 2.26 2.42 2.48 2.76 2.66 2.60 2.57
0.03 0.07 0.17 0.31 0.46 0.84 0.80 0.86 1.17 0.94 0.77 0.61 0.48 0.39 0.40 0.48 0.51 0.60 0.72 0.93 1.04 1.12 1.37 1.80 2.23 2.50 2.55 2.41 2.30 2.35 2.39 2.35 2.22 2.07 2.08 1.93 1.90 1.85 1.79 1.99 2.27 2.23 2.27 2.45 2.43 2.57 2.58 2.63 2.70
0.04 0.09 0.36 0.62 0.84 1.00 0.64 0.84 1.20 0.76 0.59 0.48 0.41 0.38 0.36 0.35 0.48 0.62 0.71 0.82 0.85 0.89 1.09 1.41 1.65 1.85 2.06 2.21 2.25 2.20 2.33 2.38 2.18 1.98 2.00 1.98 1.83 1.84 1.92 2.06 2.33 2.23 2.28 2.32 2.55 2.62 2.58 2.59 2.61
0.04 0.07 0.20 0.34 0.46 0.61 0.65 1.31 1.21 0.62 0.49 0.40 0.35 0.36 0.36 0.36 0.44 0.60 0.75 0.78 0.77 0.80 0.99 1.19 1.39 1.62 1.89 2.06 2.14 2.12 2.09 1.98 1.93 2.06 1.98 1.95 1.90 1.83 1.78 1.92 1.96 1.94 2.03 2.10 2.58 2.45 2.43 2.54 2.47
0.05 0.06 0.09 0.13 0.17 0.43 0.78 0.98 0.74 0.42 0.39 0.42 0.37 0.39 0.42 0.49 0.59 0.70 0.85 0.89 0.79 0.82 1.00 1.11 1.30 1.49 1.64 1.90 2.07 2.01 1.98 1.86 1.84 1.89 1.85 1.79 1.91 1.86 1.78 1.73 1.78 1.84 2.01 2.22 2.42 2.33 2.43 2.63 2.48
0.05 0.05 0.07 0.09 0.15 0.33 0.63 0.86 0.94 0.67 0.52 0.44 0.42 0.45 0.47 0.59 0.78 0.90 0.90 0.92 0.87 0.88 1.02 1.11 1.28 1.41 1.43 1.58 1.66 1.56 1.75 1.79 1.91 1.89 1.80 1.72 1.72 1.75 1.79 1.83 1.83 1.91 2.00 2.22 2.41 2.41 2.56 2.66 2.52
0.07 0.05 0.05 0.07 0.09 0.21 0.50 0.68 0.68 0.66 0.60 0.46 0.42 0.50 0.58 0.59 0.78 0.90 0.87 0.87 0.84 0.89 0.97 1.02 1.17 1.29 1.33 1.46 1.53 1.59 1.68 1.75 1.80 1.81 1.79 1.79 1.80 1.83 1.84 1.91 1.95 1.95 1.98 2.16 2.34 2.25 2.51 2.65 2.70
0.09 0.11 0.10 0.09 0.08 0.12 0.24 0.40 0.38 0.46 0.53 0.45 0.46 0.56 0.66 0.52 0.60 0.81 0.90 0.94 0.75 0.81 0.89 0.95 1.08 1.21 1.26 1.43 1.57 1.62 1.79 1.83 1.75 1.75 1.93 1.95 1.93 1.92 1.93 2.00 2.08 2.05 2.07 2.21 2.20 2.06 2.19 2.39 2.59